Tracking 32139 objects as of 18-Nov-2025
HD Live streaming from Space Station
objects crossing your sky now

STARLINK-35245

Track STARLINK-35245 now!
10-day predictions
STARLINK-35245 is classified as:


NORAD ID: 65599
Int'l Code: 2025-207H
Perigee: 452.8 km
Apogee: 457.4 km
Inclination: 97.6 °
Period: 93.5 minutes
Semi major axis: 6826 km
RCS: Unknown
Launch date: September 13, 2025
Source: United States (US)
Launch site: AIR FORCE EASTERN TEST RANGE (AFETR)
Your satellite tracking list
Your tracking list is empty




NASA's NSSDC Master Catalog

Two Line Element Set (TLE):
1 65599U 25207H   25321.13691543  .00081701  00000-0  20731-2 0  9997
2 65599  97.6044  25.9817 0003384 117.5496 242.6093 15.39364694 11210
Source of the keplerian elements: AFSPC